UA1ZPU-15 Weather Reports


time (UTC)temp
C
wind
direction
speed
KPH
gust
KPH
rain 1hr
cm
rain 24hr
cm
rain mn
cm
humidity
%
barometer
mb
20260506192211 -1 0.0 0.0 0.00 0.00 0.00 51 974.9
20260506191209 -1 0.0 0.0 0.00 0.00 0.00 47 974.8
20260506190206 -1 0.0 0.0 0.00 0.00 0.00 41 974.7
20260506185203 -1 0.0 0.0 0.00 0.00 0.00 37 974.7
20260506184201 0 0.0 0.0 0.00 0.00 0.00 34 974.6
20260506183200 0 0.0 0.0 0.00 0.00 0.00 26 974.6
20260506182156 1 0.0 0.0 0.00 0.00 0.00 20 974.5
20260506181308 1 0.0 0.0 0.00 0.00 0.00 20 974.5
20260506181153 1 0.0 0.0 0.00 0.00 0.00 19 974.5
20260506180700 1 0.0 0.0 0.00 0.00 0.00 19 974.5
20260506175656 1 0.0 0.0 0.00 0.00 0.00 18 974.3
20260506174653 1 0.0 0.0 0.00 0.00 0.00 19 974.3
20260506173806 1 0.0 0.0 0.00 0.00 0.00 20 974.3
20260506173652 1 0.0 0.0 0.00 0.00 0.00 20 974.2
20260506125935 2 0.0 0.0 0.00 0.00 0.00 28 971.9
20260506124932 2 0.0 0.0 0.00 0.00 0.00 29 971.9
20260506123930 2 0.0 0.0 0.00 0.00 0.00 25 971.7
20260506122929 3 0.0 0.0 0.00 0.00 0.00 20 971.5
20260506121925 3 0.0 0.0 0.00 0.00 0.00 23 971.3
20260506121037 3 0.0 0.0 0.00 0.00 0.00 24 971.3
20260506120922 3 0.0 0.0 0.00 0.00 0.00 24 971.2
20260506120215 3 0.0 0.0 0.00 0.00 0.00 26 971.2
20260506115212 3 0.0 0.0 0.00 0.00 0.00 27 971.0
20260506114325 3 0.0 0.0 0.00 0.00 0.00 30 971.0
20260506114210 3 0.0 0.0 0.00 0.00 0.00 31 970.9
20260506090601 2 0.0 0.0 0.00 0.00 0.00 36 969.1
20260506085558 2 0.0 0.0 0.00 0.00 0.00 42 969.0
20260506084555 1 0.0 0.0 0.00 0.00 0.00 51 969.0
20260506083552 1 0.0 0.0 0.00 0.00 0.00 54 968.7
20260506082549 1 0.0 0.0 0.00 0.00 0.00 53 968.6
20260506081545 1 0.0 0.0 0.00 0.00 0.00 50 968.6
20260506080544 1 0.0 0.0 0.00 0.00 0.00 50 968.3
20260506072531 1 0.0 0.0 0.00 0.00 0.00 53 967.9
20260506071528 1 0.0 0.0 0.00 0.00 0.00 55 967.8
20260506070525 1 0.0 0.0 0.00 0.00 0.00 53 967.6
20260506062456 1 0.0 0.0 0.00 0.00 0.00 51 967.0
20260506061452 1 0.0 0.0 0.00 0.00 0.00 58 966.9
20260506060450 0 0.0 0.0 0.00 0.00 0.00 57 966.8